Find this page online at www.coolrunning.com/results/10/me/Jun2_Weekly_set1.shtml

Weekly Back Cove 5K

Portland, ME, June 2, 2010

Overall

Back Cove 5k Race Series



Home Page
Standings
Run to Win







2010 Back Cove Weekly Series

Week 4 (2010-06-02)

Weather: 57 degrees, overcast, foggy
Place Time Bib Name
1 00:16:58 530 Jorma Kurry
2 00:15:58 442 Noah Schoneberg
3 00:17:04 533 Chris Harmon
4 00:17:53 445 Tom Ryan
5 00:18:05 280 Dave Manz
6 00:18:11 1 Blaine Moore
7 00:18:13 359 Tyler Littlefield
8 00:18:15 507 Stephen Judice
9 00:18:19 506 Toby Grindal
10 00:18:22 215 Stephen Desjardins
11 00:18:28 216 Kevin McDonough
12 00:18:57 362 aaron chelate
13 00:19:13 374 Eric Friend
14 00:19:14 497 Tyler Toothaker
15 00:19:44 167 Michael Cwiklinski
16 00:19:44 455 Ben Crenshaw
17 00:19:50 515 Nick Rofe
18 00:19:52 186 Kyle Simmons
19 00:19:55 354 Scott Potter
20 00:19:57 251 Jeff Walker
21 00:20:01 402 Dan Dube
22 00:20:12 434 Paul Hendry
23 00:20:12 446 Larry Bruni
24 00:20:30 281 Ian Parlin
25 00:20:32 10 Joshua Lundin
26 00:20:40 518 Matt Vasil
27 00:20:55 42 Ronald Hunt
28 00:21:06 367 Kelly Nichols
29 00:21:09 438 Michelle Whiting
30 00:21:14 140 Derek J. Veilleux
31 00:21:15 248 Darren Winchenbach
32 00:21:15 529 Finn Melanson
33 00:21:18 63 Sean Case
34 00:21:21 192 Brian Keezer
35 00:21:24 522 Brad Allen
36 00:21:27 451 David Brown
37 00:21:34 492 Richard Elvidge
38 00:21:36 39 Gregory Lull
39 00:21:37 9 Emilio Millan
40 00:21:39 255 Dominic Tracey
41 00:21:58 534 Arden Manning
42 00:22:04 469 Kelsey Abbott
43 00:22:06 450 Rich McCauley
44 00:22:15 510 Melissa Christenson
45 00:22:25 8 Nathan Augustine
46 00:22:26 461 Aaron Leeman
47 00:22:31 0 {unknown runner}
48 00:22:33 148 Scott Brown
49 00:22:35 526 Bucky Rogers
50 00:22:37 336 Eric Friend
51 00:22:40 413 Cheryl Regan
52 00:22:46 380 Steve Oliver
53 00:22:48 500 Mike Berrie
54 00:22:48 352 Patrick Lewis
55 00:22:51 254 Brad Genest
56 00:22:52 44 Christopher Whitney
57 00:23:02 487 Elizabeth Jacobson
58 00:23:03 524 Curt Monaco
59 00:23:05 0 {unknown runner}
60 00:23:06 321 T.J. Tigerman
61 00:23:07 467 Donna Woodard
62 00:23:08 477 Ashley McKenney
63 00:23:23 484 michelle doherty
64 00:23:25 514 Trish Lefevre
65 00:23:26 276 Pete Morrill
66 00:23:30 265 Martin Duval
67 00:23:32 516 Melisa Walker
68 00:23:35 535 Jessica Daly
69 00:23:36 143 Dominic Hebert
70 00:23:40 531 Christian Rodgiquez
71 00:23:41 201 Eric Brackett
72 00:23:46 231 erin donovan
73 00:23:47 448 Christopher Lambert
74 00:23:50 271 Scott Dakers
75 00:23:53 209 Christopher LaPointe
76 00:23:53 447 Jeremy Ferris
77 00:23:56 399 Abbey Collins
78 00:23:57 335 Dustin Carson
79 00:24:01 358 David Levi
80 00:24:03 92 Alec Libby
81 00:24:04 82 Robin Metcalf
82 00:24:06 328 Molly Urquhart
83 00:24:11 131 Shawn Smith
84 00:24:15 77 Sandra Goff
85 00:24:20 520 Parker Swenson
86 00:24:21 19 michael beaudoin
87 00:24:30 147 Philip Daigle
88 00:24:33 30 Julianne Baroody
89 00:24:37 525 Alex Johanson
90 00:24:39 138 Matt Boucher
91 00:24:39 475 sarah jacobs
92 00:24:40 150 Amy Simpson
93 00:24:44 165 Maureen McInnis
94 00:24:48 198 Jennifer Baroody
95 00:24:58 357 Rebekah Sirois
96 00:25:08 452 Darby Cooper
97 00:25:12 37 Chuck Cannone
98 00:25:16 289 Doug Hekl
99 00:25:18 297 Heather Henningsen
100 00:25:20 459 Robyn Boudewija
101 00:25:21 119 Randall Farr
102 00:25:30 466 paul tracy
103 00:25:35 57 Peter Cole
104 00:25:39 400 Sarah Brann
105 00:25:48 517 Matt Leblanc
106 00:25:49 106 Chris Maher
107 00:25:50 62 Ria Chavez
108 00:25:51 13 Richard Dawson
109 00:26:00 27 David Tiemann
110 00:26:02 232 Riley donovan
111 00:26:06 89 Karyn Schumacher
112 00:26:08 179 Diane Bell
113 00:26:11 401 Sarah Boucher
114 00:26:14 494 Abby Popenoe
115 00:26:15 495 Sadie Sarvis
116 00:26:18 132 Jacquelyn Borlawsky
117 00:26:21 12 Margaritt McNulty
118 00:26:23 158 nancy miller
119 00:26:45 130 Kate Philbrick
120 00:26:45 142 Alan Ozarowski
121 00:26:50 80 SON NGUYEN
122 00:26:58 43 Paul Griffin
123 00:27:03 502 Frank Woodard
124 00:27:05 113 Eugene Longobardi
125 00:27:08 292 Paul Ainsworth
126 00:27:11 114 Samuel Gile
127 00:27:23 267 Margaret Duval
128 00:27:24 397 lindsey guerrette
129 00:27:24 127 robyn brown
130 00:27:25 96 Bill Brewington
131 00:27:26 195 Denise Morrill
132 00:27:27 444 Kellie Stratton
133 00:27:29 388 Todd Turkewitz
134 00:27:32 414 Scott Reoch
135 00:27:35 244 Peterspn William
136 00:27:38 237 Lauren Mehr
137 00:27:39 490 Karen Libby
138 00:27:41 49 Paul Boutin
139 00:27:43 491 Haleigh Libby
140 00:27:43 498 Karla Coury
141 00:27:45 188 Catherine Hjort
142 00:27:55 116 Rob Reed
143 00:27:59 527 Becca Goff
144 00:28:00 470 Marilyn Bell
145 00:28:02 485 adeena fisher
146 00:28:10 196 Rob Foley
147 00:28:12 473 Stacey Rogers
148 00:28:16 483 Sarah McCliment
149 00:28:18 392 Eliza Gray
150 00:28:34 258 Allyn Genest
151 00:28:34 381 Allen Huntington
152 00:28:40 125 Jeffrey Edwards
153 00:28:46 489 Jerrold Edelberg
154 00:28:52 318 Nicole Dunbar
155 00:28:57 479 Ellen Popenoe
156 00:29:11 411 Jeanne Swanton
157 00:29:11 282 Jay Wilson
158 00:29:26 504 Riley Whiteman
159 00:29:28 532 Quincy Freeman
160 00:29:31 316 Tonya Fowler
161 00:29:32 499 Roger Borduas
162 00:29:41 390 Katie Allen
163 00:29:41 528 Todd Bayha
164 00:29:42 441 Adam Temple
165 00:29:44 405 jillian cascio
166 00:29:48 508 Andy Haslam
167 00:29:50 181 Elizabeth Palmer
168 00:29:50 279 Donna Boudreau
169 00:29:53 193 Ginger Reoch
170 00:30:00 112 Jonathan Pfaff
171 00:30:00 457 Karen Morrison
172 00:30:06 270 Katherine Gatti
173 00:30:15 122 Kristina Blake
174 00:30:15 121 Justin Blake
175 00:30:27 242 Fred Kilfoil
176 00:30:32 523 Heidi Simmons
177 00:30:40 295 Ryan O'Hara
178 00:30:48 296 Katarina Kuzmara
179 00:31:00 109 Robert L'Heureux
180 00:31:06 511 Harry Center
181 00:31:13 512 Beth Chernosky
182 00:31:14 211 Lori Thomas
183 00:31:26 182 Anne Perley
184 00:31:31 210 Sasha Chipman
185 00:31:54 212 Heather Laverriere
186 00:31:56 40 Abigail Raymond
187 00:31:59 208 Michelle Mills
188 00:32:25 351 Sara Campbell
189 00:32:26 536 Bridget Daly
190 00:32:29 496 Tracy Moore
191 00:33:02 250 Adrienne Wilson
192 00:33:02 519 Liz Armstrong
193 00:33:09 421 Lauren McFarland
194 00:33:13 505 Emily Kimball
195 00:33:24 503 Fiona Clifford
196 00:33:57 537 Patrice Ames
197 00:33:58 225 Kristine Gile
198 00:34:05 319 Roger Morse
199 00:34:15 408 Laurie Bragg
200 00:34:31 15 Adam Johnson
201 00:34:37 361 Heather Bennett
202 00:34:53 360 Tim Chick
203 00:34:55 419 Rebecca Leaming
204 00:34:56 428 William Sargent
205 00:35:06 427 Rachel Bouchard
206 00:35:51 145 Harry Hunt
207 00:35:51 160 Susan Marshall
208 00:36:45 363 Laurie Cook
209 00:37:08 340 Kristine Hanly
210 00:37:22 115 Christy Reed
211 00:37:22 501 Maggie Watson
212 00:37:24 421 Lauren McFarland
213 00:37:30 269 Mariah Cunningham
214 00:37:34 339 Blaise Maccarrone
215 00:38:28 11 Shannon Garrity
216 00:41:39 283 Jessie Allen
217 00:41:39 371 Jerod Kinney
218 00:44:00 0 {unknown runner}
219 00:44:00 176 Eric Ellis
220 00:47:17 509 Evangalyn Gadbois
221 00:57:40 312 Michelle Ames
222 00:59:00 0 {unknown runner}